SCP
0 0 0 0 0 0 0 0 0 0 0 0 0 0 0 0 0 0 0 0 0 0 0 0 0 0 0 0 0 0 0 0 0 0 0 0 0 0 0 0 0 0 0
0 0 0 0 0 0 0 0 0 0 0 0 0 0 0 0 0 0 0 0 0 0 0 0 0 0 0 0 0 0 0 0 0 0 0 0 0 0 0 0 0 0 0
0 0 0 0 0 0 0 0 0 0 0 0 0 0 0 0 0 0 0 0 0 0 0 0 0 0 0 0 0 0 0 0 0 0 0 0 0 0 0 0 0 0 0
0 0 0 0 0 0 0 0 0 0 0 0 0 0 0 0 0 0 0 0 0 0 0 0 0 0 0 0 0 0 0 0 0 0 0 0 0 0 0 0 0 0 0
0 0 0 0 0 0 0 0 0 0 0 0 0 0 0 0 0 0 0 0 0 0 0 0 0 0 0 0 0 0 0 0 0 0 0 0 0 0 0 0 0 0 0
0 0 0 0 0 0 0 0 0 0 0 0 0 0 0 0 0 0 0 0 0 0 0 0 0 0 0 0 0 0 0 0 0 0 0 0 0 0 0 0 0 0 0
0 0 0 0 0 0 0 0 0 0 0 0 0 0 0 0 0 0 0 0 0 0 0 0 0 0 0 0 0 0 0 0 0 0 0 0 0 0 0 0 0 0 0
0 0 0 0 0 0 0 0 0 0 0 0 0 0 0 0 0 0 0 0 0 0 0 0 0 0 0 0 0 0 0 0 0 0 0 0 0 0 0 0 0 0 0
0 0 0 0 0 0 0 0 0 0 0 0 0 0 0 0 0 0 0 0 0 0 0 0 0 0 0 0 0 0 0 0 0 0 0 0 0 0 0 0 0 0 0
0 0 0 0 0 0 0 0 0 0 0 0 0 0 0 0 0 0 0 0 0 0 0 0 0 0 0 0 0 0 0 0 0 0 0 0 0 0 0 0 0 0 0
0 0 0 0 0 0 0 0 0 0 0 0 0 0 0 0 0 0 0 0 0 0 0 0 0 0 0 0 0 0 0 0 0 0 0 0 0 0 0 0 0 0 0
0 0 0 0 0 0 0 0 0 0 0 0 0 0 0 0 0 0 0 0 0 0 0 0 0 0 0 0 0 0 0 0 0 0 0 0 0 0 0 0 0 0 0
0 0 0 0 0 0 0 0 0 0 0 0 0 0 0 0 0 0 0 0 0 0 0 0 0 0 0 0 0 0 0 0 0 0 0 0 0 0 0 0 0 0 0
0 0 0 0 0 0 0 0 0 0 0 0 0 0 0 0 0 0 0 0 0 0 0 0 0 0 0 0 0 0 0 0 0 0 0 0 0 0 0 0 0 0 0
0 0 0 0 0 0 0 0 0 0 0 0 0 0 0 0 0 0 0 0 0 0 0 0 0 0 0 0 0 0 0 0 0 0 0 0 0 0 0 0 0 0 0
0 0 0 0 0 0 0 0 0 0 0 0 0 0 0 0 0 0 0 0 0 0 0 0 0 0 0 0 0 0 0 0 0 0 0 0 0 0 0 0 0 0 0
0 0 0 0 0 0 0 0 0 0 0 0 0 0 0 0 0 0 0 0 0 0 0 0 0 0 0 0 0 0 0 0 0 0 0 0 0 0 0 0 0 0 0
0 0 0 0 0 0 0 0 0 0 0 0 0 0 0 0 0 0 0 0 0 0 0 0 0 0 0 0 0 0 0 0 0 0 0 0 0 0 0 0 0 0 0
0 0 0 0 0 0 0 0 0 0 0 0 0 0 0 0 0 0 0 0 0 0 0 0 0 0 0 0 0 0 0 0 0 0 0 0 0 0 0 0 0 0 0
0 0 0 0 0 0 0 0 0 0 0 0 0 0 0 0 0 0 0 0 0 0 0 0 0 0 0 0 0 0 0 0 0 0 0 0 0 0 0 0 0 0 0
0 0 0 0 0 0 0 0 0 0 0 0 0 0 0 0 0 0 0 0 0 0 0 0 0 0 0 0 0 0 0 0 0 0 0 0 0 0 0 0 0 0 0
0 0 0 0 0 0 0 0 0 0 0 0 0 0 0 0 0 0 0 0 0 0 0 0 0 0 0 0 0 0 0 0 0 0 0 0 0 0 0 0 0 0 0
0 0 0 0 0 0 0 0 0 0 0 0 0 0 0 0 0 0 0 0 0 0 0 0 0 0 0 0 0 0 0 0 0 0 0 0 0 0 0 0 0 0 0
0 0 0 0 0 0 0 0 0 0 0 0 0 0 0 0 0 0 0 0 0 0 0 0 0 0 0 0 0 0 0 0 0 0 0 0 0 0 0 0 0 0 0
0 0 0 0 0 0 0 0 0 0 0 0 0 0 0 0 0 0 0 0 0 0 0 0 0 0 0 0 0 0 0 0 0 0 0 0 0 0 0 0 0 0 0
0 0 0 0 0 0 0 0 0 0 0 0 0 0 0 0 0 0 0 0 0 0 0 0 0 0 0 0 0 0 0 0 0 0 0 0 0 0 0 0 0 0 0
Wind_Speed
5 5 6 6 6 7 8 10 9 8 8 9 10 11 13 13 13 13 14 12 14 15 14 15 16 13 11 10 9 8 8 7 8 4 5 5 11 11 10 9 8 9 8
5 5 6 6 6 7 9 9 8 9 8 9 10 11 12 13 12 14 15 14 14 15 15 15 16 12 15 11 11 12 11 9 8 7 6 6 8 12 10 10 8 7 6
4 5 6 7 7 9 10 9 8 8 8 8 9 12 12 12 12 14 14 13 14 15 13 15 15 14 16 13 12 12 10 9 6 6 6 5 3 7 8 6 7 5 6
4 5 7 8 8 9 9 8 8 8 9 9 10 11 11 11 12 12 12 12 12 12 12 13 13 15 16 14 13 12 10 10 8 7 6 6 4 6 7 7 6 5 5
5 6 8 8 7 7 8 8 8 8 9 9 9 10 10 9 10 11 11 11 12 12 11 11 12 14 16 14 11 12 12 11 9 8 7 7 6 8 10 7 7 5 4
7 7 8 7 7 8 8 8 8 8 8 8 9 9 10 10 13 18 14 10 11 11 11 10 10 11 14 19 19 18 18 15 13 11 9 11 11 9 8 7 7 6 5
8 8 8 7 8 8 7 7 8 9 8 8 9 9 11 13 17 17 18 11 10 10 10 9 7 7 10 10 15 20 19 21 20 13 12 12 12 12 12 11 9 7 5
9 9 9 8 9 8 7 8 8 6 7 8 8 9 9 10 15 16 15 12 10 10 9 9 9 8 9 10 9 11 11 12 15 10 9 9 9 11 12 11 9 6 3
9 9 9 9 10 10 9 9 7 6 7 6 6 7 8 9 12 14 13 7 8 9 8 8 9 8 13 17 12 10 10 8 13 12 11 11 15 17 14 9 8 6 4
10 10 10 8 9 10 10 9 6 5 6 5 5 5 6 7 10 13 13 5 6 6 5 6 9 12 14 18 12 11 11 9 9 10 11 13 12 14 18 11 10 7 4
10 10 10 9 8 8 8 6 5 5 4 4 5 4 4 5 8 11 12 6 5 5 5 5 6 14 16 18 15 10 12 11 10 10 8 8 8 8 9 8 8 7 6
9 10 10 9 8 6 6 6 4 3 4 4 3 4 3 3 5 8 11 10 8 5 5 4 6 13 16 17 13 12 16 12 7 7 7 7 7 7 7 7 8 6 4
9 10 9 9 7 6 5 5 4 2 3 3 3 3 3 2 4 7 8 9 9 5 4 8 10 13 14 12 14 15 11 8 7 7 7 7 6 6 6 5 5 4 3
10 9 8 7 7 5 4 3 3 3 3 3 3 3 3 2 2 2 2 2 3 4 3 5 10 11 10 7 7 9 7 6 6 6 6 5 5 5 5 5 5 5 3
10 9 7 6 6 5 4 3 3 3 3 3 3 3 2 3 3 4 2 2 2 3 4 3 3 3 4 4 4 4 4 6 6 5 5 5 5 6 5 5 4 5 5
9 8 6 5 4 4 3 3 3 2 3 3 3 3 2 3 4 4 3 4 5 8 5 3 3 3 4 4 4 4 4 4 5 5 5 6 6 6 6 5 4 5 6
9 8 6 5 4 3 3 2 2 2 3 4 6 5 4 3 2 2 1 2 4 6 3 3 3 3 3 3 3 3 3 4 4 4 5 5 5 5 5 5 5 5 5
8 7 6 5 4 3 2 1 1 0 1 2 4 7 7 6 5 4 2 2 2 2 2 2 1 2 2 2 2 2 2 3 3 3 4 4 5 5 5 6 6 6 6
6 5 4 3 2 1 0 0 1 2 2 2 3 5 7 6 8 10 7 4 3 2 2 2 1 1 1 1 1 1 2 2 3 3 3 4 4 5 5 5 6 7 6
4 5 4 2 1 1 1 2 2 3 3 3 4 4 4 4 4 6 6 5 4 4 3 3 3 2 2 1 1 1 1 1 2 2 2 3 3 4 5 6 5 5 5
3 3 3 2 2 2 3 3 3 4 4 4 4 7 8 5 5 5 5 5 5 4 4 3 3 3 3 2 2 1 0 1 1 1 2 2 2 3 3 3 4 4 4
2 2 3 3 3 4 4 4 5 5 5 5 4 6 11 7 5 5 5 5 4 4 4 3 3 3 3 3 2 1 1 0 0 1 1 1 2 2 2 3 3 4 4
3 3 4 4 4 6 6 5 5 5 5 5 4 4 5 5 4 4 4 4 4 4 4 3 3 3 3 3 2 1 1 1 1 1 2 2 2 2 2 3 4 4 4
4 5 5 5 5 5 5 5 5 5 5 4 4 4 4 4 4 4 4 3 3 3 3 3 3 3 4 3 2 2 2 2 1 1 2 3 3 3 3 3 3 4 4
5 5 5 5 4 4 4 4 4 4 4 4 3 3 3 3 3 3 3 3 3 3 4 3 3 3 4 5 4 3 4 4 2 1 2 2 3 3 3 3 3 3 4
5 5 5 4 4 4 4 3 3 3 3 3 3 2 3 3 3 3 3 3 3 3 3 3 4 4 5 4 5 6 6 6 4 4 2 2 3 3 3 3 4 4 4
Wind_Direction
243 237 237 237 231 228 231 234 232 228 217 215 214 215 219 222 221 225 231 229 228 227 222 222 224 218 217 212 206 205 208 204 219 195 175 172 183 190 191 186 188 194 205
258 252 251 249 241 239 242 241 232 231 224 219 214 217 220 221 219 223 229 230 232 232 228 224 224 218 219 215 209 210 210 205 201 190 177 175 188 191 183 182 187 193 195
279 266 265 259 250 248 250 248 238 234 232 223 217 220 221 220 220 223 228 230 233 236 232 227 224 217 220 216 212 211 208 200 191 178 173 167 160 173 173 178 182 184 194
303 281 272 267 261 259 259 255 247 238 234 229 224 225 223 220 220 222 225 230 235 239 237 233 227 220 220 215 213 210 199 192 185 175 166 164 155 158 170 176 185 189 199
310 293 278 278 278 273 268 263 258 249 243 238 231 229 225 221 222 221 223 228 233 239 239 236 232 226 221 214 209 202 193 192 184 183 175 167 167 169 184 182 186 177 198
310 295 292 292 285 277 272 269 264 257 251 243 236 232 229 229 228 222 220 226 230 236 240 238 232 225 222 218 214 205 196 191 188 185 184 184 183 177 170 172 166 167 203
314 308 306 302 294 286 280 272 263 259 253 246 242 235 236 236 233 228 224 222 228 233 235 234 230 220 212 213 216 212 207 206 197 187 186 185 178 177 171 174 180 182 189
317 315 315 311 303 298 289 276 268 260 252 250 245 239 240 243 239 237 231 227 232 233 230 226 225 217 206 201 200 201 197 201 201 195 186 181 176 173 176 176 172 160 120
313 312 313 310 304 302 295 288 281 272 264 252 247 238 240 247 242 242 236 231 235 235 229 221 215 211 209 204 197 196 192 194 197 186 180 174 174 171 164 151 153 162 183
310 308 306 301 295 294 292 290 285 273 271 266 261 247 242 248 248 246 240 230 235 235 227 218 214 210 209 205 196 191 191 182 169 171 174 175 172 174 175 173 171 175 169
307 306 304 299 293 290 290 289 286 282 280 276 273 269 256 253 258 255 249 230 224 224 221 212 211 213 211 208 199 193 193 176 172 171 168 165 165 173 179 178 182 182 180
307 303 301 300 297 294 292 295 293 281 279 278 279 284 276 267 260 264 262 250 232 218 215 201 203 209 209 209 204 197 194 181 170 171 171 174 178 182 181 180 183 187 182
305 300 298 298 296 292 287 289 291 276 266 272 270 275 279 276 279 277 275 261 241 221 200 197 198 206 208 210 208 201 191 183 173 178 185 186 185 176 162 160 160 154 136
298 296 295 296 297 295 286 278 276 275 272 271 268 269 276 281 280 281 280 267 228 202 185 192 197 204 206 199 197 201 193 184 180 185 185 175 162 162 169 169 171 168 168
297 292 291 285 284 289 284 271 269 261 255 267 270 268 273 284 282 271 246 218 180 170 149 147 166 177 197 193 190 190 183 178 181 178 173 166 168 173 177 173 170 170 184
295 293 289 284 280 276 281 296 291 282 300 292 287 286 274 279 299 295 256 216 188 169 149 159 175 185 193 192 186 183 181 183 181 175 177 178 181 183 181 176 174 185 198
283 285 283 279 274 269 265 264 285 348 21 24 17 8 359 355 339 322 262 177 168 163 148 159 178 190 195 191 186 185 186 183 176 177 184 184 182 181 179 180 182 190 202
284 280 276 274 272 264 255 252 245 242 354 356 1 11 13 20 28 28 49 106 116 115 96 135 165 181 184 182 180 178 174 167 174 181 183 183 182 182 184 188 191 196 199
289 285 284 285 284 277 249 98 78 78 66 28 8 3 3 16 37 40 48 55 68 60 55 62 63 74 91 121 147 163 170 175 177 181 188 189 187 187 193 195 194 195 193
296 303 308 308 333 23 61 75 73 73 65 50 32 8 359 26 39 33 37 43 52 50 46 47 40 41 46 58 76 111 143 163 176 190 198 194 192 195 199 196 194 193 199
308 331 1 21 32 43 55 62 66 68 66 57 32 29 49 53 51 44 41 37 36 34 29 29 30 30 29 32 42 61 121 182 192 196 196 192 187 195 198 196 196 194 190
333 8 32 44 48 52 56 57 62 66 62 56 36 29 45 51 48 46 42 34 27 24 17 22 27 23 17 15 14 18 21 348 261 218 207 197 194 193 189 190 191 191 188
23 43 51 50 53 60 60 55 58 61 58 50 42 38 38 41 39 37 30 18 14 14 11 16 18 11 7 7 7 6 330 279 261 238 220 212 205 201 197 201 196 192 196
36 48 55 53 53 56 58 55 53 54 53 48 41 37 34 31 28 24 14 5 4 2 2 2 1 353 350 349 345 339 314 293 272 235 218 210 208 206 202 206 203 203 199
38 47 51 50 51 53 55 53 49 46 43 39 31 24 17 13 11 3 353 349 347 343 340 338 335 333 330 327 321 311 307 305 285 240 213 204 206 205 204 208 205 200 197
36 41 44 44 44 43 44 44 38 32 27 18 10 359 351 345 338 331 328 327 326 320 316 314 309 308 306 304 299 297 290 283 263 231 200 197 202 206 202 207 206 201 195